M I D A S
Marine Information and Data Acquisition System
Tripno 1084 of the Zeeleeuw from 2006-05-16 11:20:07 to 2006-05-16 13:52:37
Back to CruiseResearch ActivitiesStationsMapUnderway DataData graphs

EquipmentUnitsComment
TimeDGPSUTC
LatitudeDGPSDM.mWGS84
LongitudeDGPSDM.mWGS84
HeadingGyrodeg 
SOGDGPSknotsSpeed over ground
COGDGPSdegCourse over ground
DepthEcho soundermeters200 kHz
Missing or incorrect values are displayed as -999
Navigation data collected by the RV Zeeleeuw from 2006-05-16 07:39:04 to 2006-05-16 14:03:54
                                                                                    Next 1000 lines
Time Latitude Longitude Heading SOG COG Depth
2006-05-16 07:39:14 51°13.601 2°56.1 125.1 -999 59 -999
2006-05-16 07:39:18 51°13.601 2°56.1 125.1 -999 8 -999
2006-05-16 07:39:24 51°13.601 2°56.099 125.2 0.1 351 -999
2006-05-16 07:39:28 51°13.6 2°56.099 125.2 -999 2 -999
2006-05-16 07:39:34 51°13.6 2°56.1 125.2 -999 186 -999
2006-05-16 07:39:39 51°13.6 2°56.099 125 -999 176 -999
2006-05-16 07:39:44 51°13.6 2°56.1 124.6 -999 172 -999
2006-05-16 07:39:48 51°13.6 2°56.099 124 0.1 188 -999
2006-05-16 07:39:54 51°13.6 2°56.099 123.4 0.1 182 -999
2006-05-16 07:39:59 51°13.6 2°56.1 122.8 0.1 182 -999
2006-05-16 07:40:04 51°13.6 2°56.1 122.2 0.1 174 -999
2006-05-16 07:40:09 51°13.6 2°56.1 121.5 -999 190 -999
2006-05-16 07:40:14 51°13.601 2°56.1 121.1 -999 226 -999
2006-05-16 07:40:18 51°13.601 2°56.1 120.4 -999 222 -999
2006-05-16 07:40:24 51°13.601 2°56.1 119.7 0.1 201 -999
2006-05-16 07:40:29 51°13.601 2°56.1 119.2 0.1 198 -999
2006-05-16 07:40:34 51°13.6 2°56.1 118.5 0.1 191 -999
2006-05-16 07:40:38 51°13.6 2°56.1 117.7 0.1 189 -999
2006-05-16 07:40:44 51°13.6 2°56.1 116.8 0.1 178 -999
2006-05-16 07:40:49 51°13.6 2°56.1 116 -999 220 -999
2006-05-16 07:40:54 51°13.6 2°56.099 115.3 0.1 215 -999
2006-05-16 07:40:58 51°13.6 2°56.099 114.4 0.1 200 -999
2006-05-16 07:41:04 51°13.6 2°56.1 113.4 0.1 187 -999
2006-05-16 07:41:08 51°13.6 2°56.099 112.5 0.1 191 -999
2006-05-16 07:41:14 51°13.6 2°56.1 111.6 0.1 173 -999
2006-05-16 07:41:19 51°13.599 2°56.099 110.7 0.1 187 -999
2006-05-16 07:41:24 51°13.599 2°56.099 109.6 0.1 182 -999
2006-05-16 07:41:28 51°13.599 2°56.099 108.5 0.1 180 -999
2006-05-16 07:41:34 51°13.6 2°56.099 107.1 0.1 315 -999
2006-05-16 07:41:39 51°13.6 2°56.098 106.4 0.3 270 -999
2006-05-16 07:41:44 51°13.6 2°56.097 105.8 0.6 286 -999
2006-05-16 07:41:48 51°13.601 2°56.096 105.7 0.8 286 -999
2006-05-16 07:41:54 51°13.601 2°56.093 105.7 1 280 -999
2006-05-16 07:41:59 51°13.602 2°56.09 105.9 1.3 286 -999
2006-05-16 07:42:04 51°13.602 2°56.087 106.7 1.6 284 4.5
2006-05-16 07:42:08 51°13.603 2°56.083 107.3 1.8 288 -999
2006-05-16 07:42:14 51°13.603 2°56.078 107.9 2 287 -999
2006-05-16 07:42:19 51°13.604 2°56.073 108.5 2.3 290 -999
2006-05-16 07:42:24 51°13.605 2°56.068 108.8 2.5 289 -999
2006-05-16 07:42:29 51°13.607 2°56.062 108.8 2.6 290 -999
2006-05-16 07:42:34 51°13.608 2°56.056 108.3 2.9 289 -999
2006-05-16 07:42:39 51°13.609 2°56.049 108.2 3.1 289 -999
2006-05-16 07:42:44 51°13.611 2°56.043 108.1 3.2 288 -999
2006-05-16 07:42:48 51°13.612 2°56.037 108.1 3.3 288 -999
2006-05-16 07:42:54 51°13.614 2°56.028 108.1 3.5 287 -999
2006-05-16 07:42:59 51°13.615 2°56.021 108.2 3.6 287 -999
2006-05-16 07:43:04 51°13.616 2°56.013 108.8 3.8 286 -999
2006-05-16 07:43:08 51°13.618 2°56.006 109.5 3.9 287 -999
2006-05-16 07:43:14 51°13.62 2°55.995 110.8 4.1 288 -999
2006-05-16 07:43:19 51°13.621 2°55.986 112.3 4.2 289 -999
2006-05-16 07:43:24 51°13.623 2°55.977 113.7 4.4 289 -999
2006-05-16 07:43:29 51°13.626 2°55.968 115.1 4.6 291 -999
2006-05-16 07:43:34 51°13.629 2°55.958 116.6 4.7 293 -999
2006-05-16 07:43:39 51°13.631 2°55.949 117.9 4.8 293 -999
2006-05-16 07:43:44 51°13.634 2°55.939 119.6 4.9 295 -999
2006-05-16 07:43:48 51°13.637 2°55.931 121.2 5 297 -999
2006-05-16 07:43:54 51°13.641 2°55.919 122.6 5.1 298 -999
2006-05-16 07:43:59 51°13.644 2°55.909 123.9 5.1 299 -999
2006-05-16 07:44:04 51°13.648 2°55.899 124.5 5.2 300 -999
2006-05-16 07:44:08 51°13.651 2°55.891 125.2 5.2 301 -999
2006-05-16 07:44:14 51°13.656 2°55.88 125.8 5.3 303 -999
2006-05-16 07:44:19 51°13.66 2°55.87 126.4 5.3 303 -999
2006-05-16 07:44:24 51°13.664 2°55.86 127 5.3 304 -999
2006-05-16 07:44:28 51°13.668 2°55.852 127 5.4 304 -999
2006-05-16 07:44:34 51°13.672 2°55.841 127 5.2 305 -999
2006-05-16 07:44:38 51°13.676 2°55.834 127 4.8 304 -999
2006-05-16 07:44:44 51°13.68 2°55.824 126.7 4.6 305 -999
2006-05-16 07:44:48 51°13.683 2°55.818 126.2 4.4 304 4.5
2006-05-16 07:44:52 51°13.686 2°55.811 125.7 4.3 304 4.7
2006-05-16 07:44:58 51°13.689 2°55.802 124.9 4.1 303 -999
2006-05-16 07:45:03 51°13.692 2°55.795 124.1 4 304 4.6
2006-05-16 07:45:08 51°13.695 2°55.788 123 3.9 303 -999
2006-05-16 07:45:13 51°13.698 2°55.781 121.8 3.8 302 4.6
2006-05-16 07:45:18 51°13.7 2°55.774 120.5 3.6 301 -999
2006-05-16 07:45:23 51°13.703 2°55.768 119.1 3.4 301 4.6
2006-05-16 07:45:28 51°13.705 2°55.761 118 3.2 299 4.6
2006-05-16 07:45:34 51°13.707 2°55.755 117 3 299 -999
2006-05-16 07:45:38 51°13.709 2°55.75 116.1 2.8 299 4.6
2006-05-16 07:45:43 51°13.71 2°55.746 114.9 2.5 300 4.5
2006-05-16 07:45:48 51°13.712 2°55.742 113.6 2 299 -999
2006-05-16 07:45:54 51°13.713 2°55.739 111.5 1.5 303 -999
2006-05-16 07:45:58 51°13.714 2°55.737 108.4 1.1 307 4.6
2006-05-16 07:46:03 51°13.714 2°55.737 104.5 0.6 331 9.2
2006-05-16 07:46:08 51°13.715 2°55.737 101 0.4 355 -999
2006-05-16 07:46:14 51°13.716 2°55.737 95.7 0.5 34 -999
2006-05-16 07:46:19 51°13.716 2°55.739 91.2 0.6 50 -999
2006-05-16 07:46:23 51°13.717 2°55.739 86.8 0.6 41 -999
2006-05-16 07:46:28 51°13.717 2°55.74 83.5 0.5 45 -999
2006-05-16 07:46:34 51°13.718 2°55.74 81.2 0.4 25 -999
2006-05-16 07:46:39 51°13.718 2°55.74 79.3 0.2 358 -999
2006-05-16 07:46:44 51°13.718 2°55.739 77.2 0.4 291 9.2
2006-05-16 07:46:48 51°13.718 2°55.738 75.1 0.7 268 -999
2006-05-16 07:46:54 51°13.718 2°55.735 73.6 1.1 264 9.1
2006-05-16 07:46:58 51°13.718 2°55.732 71.9 1.4 260 -999
2006-05-16 07:47:04 51°13.717 2°55.728 70.4 1.7 255 -999
2006-05-16 07:47:08 51°13.716 2°55.725 68.4 1.6 255 -999
2006-05-16 07:47:14 51°13.716 2°55.721 67.3 1.5 255 -999
2006-05-16 07:47:18 51°13.716 2°55.719 66.4 1.4 256 -999
2006-05-16 07:47:24 51°13.715 2°55.715 65.6 1.3 255 -999
2006-05-16 07:47:28 51°13.715 2°55.713 64.9 1.3 257 -999
2006-05-16 07:47:34 51°13.714 2°55.711 63.9 1 255 -999
2006-05-16 07:47:38 51°13.714 2°55.71 62.4 0.8 264 -999
2006-05-16 07:47:44 51°13.715 2°55.709 60.1 0.3 297 -999
2006-05-16 07:47:48 51°13.715 2°55.709 57 0.4 1 4.7
2006-05-16 07:47:54 51°13.716 2°55.71 52.1 0.9 30 -999
2006-05-16 07:47:58 51°13.717 2°55.711 45 1.1 23 -999
2006-05-16 07:48:04 51°13.719 2°55.712 39.1 1.3 22 -999
2006-05-16 07:48:08 51°13.721 2°55.713 33.7 1.5 19 -999
2006-05-16 07:48:13 51°13.723 2°55.714 28.3 1.6 16 -999
2006-05-16 07:48:18 51°13.726 2°55.715 22.5 1.8 11 -999
2006-05-16 07:48:24 51°13.729 2°55.716 16.6 2 6 -999
2006-05-16 07:48:28 51°13.731 2°55.716 11.6 2.1 1 9.5
2006-05-16 07:48:33 51°13.734 2°55.715 5.6 2.3 354 4.6
2006-05-16 07:48:38 51°13.738 2°55.714 359.6 2.4 349 -999
2006-05-16 07:48:44 51°13.742 2°55.712 354.1 2.6 346 9.3
2006-05-16 07:48:48 51°13.745 2°55.711 349.6 2.7 342 9
2006-05-16 07:48:53 51°13.749 2°55.709 346.1 2.9 339 9
2006-05-16 07:48:58 51°13.752 2°55.706 342.3 2.9 337 9.1
2006-05-16 07:49:03 51°13.756 2°55.703 340 3.2 335 9.1
2006-05-16 07:49:08 51°13.76 2°55.699 338.6 3.3 335 9.1
2006-05-16 07:49:13 51°13.764 2°55.695 337.7 3.4 334 -999
2006-05-16 07:49:18 51°13.769 2°55.692 337.2 3.6 334 -999
2006-05-16 07:49:24 51°13.774 2°55.687 337 3.7 334 9.2
2006-05-16 07:49:28 51°13.778 2°55.685 336.7 3.8 333 9.3
2006-05-16 07:49:33 51°13.783 2°55.681 336.5 3.9 332 9.3
2006-05-16 07:49:38 51°13.788 2°55.676 335.9 4 332 9.3
2006-05-16 07:49:43 51°13.793 2°55.672 335.2 4.1 331 9.3
2006-05-16 07:49:48 51°13.798 2°55.668 334.3 4.2 330 9.9
2006-05-16 07:49:54 51°13.804 2°55.662 333.1 4.3 330 -999
2006-05-16 07:49:58 51°13.809 2°55.658 332.1 4.5 329 9.3
2006-05-16 07:50:04 51°13.816 2°55.651 331.8 4.8 330 -999
2006-05-16 07:50:08 51°13.82 2°55.646 332 5.1 329 -999
2006-05-16 07:50:13 51°13.827 2°55.64 332.7 5.5 331 9.3
2006-05-16 07:50:18 51°13.833 2°55.633 333.1 5.8 331 9.3
2006-05-16 07:50:23 51°13.841 2°55.626 333.3 6.2 331 9.3
2006-05-16 07:50:28 51°13.849 2°55.618 333.8 6.6 331 -999
2006-05-16 07:50:33 51°13.857 2°55.611 334.2 6.8 332 9.2
2006-05-16 07:50:38 51°13.866 2°55.604 334.9 7.1 331 9.2
2006-05-16 07:50:43 51°13.875 2°55.596 336 7.3 332 9.2
2006-05-16 07:50:48 51°13.885 2°55.589 337.5 7.5 334 9.3
2006-05-16 07:50:52 51°13.892 2°55.583 338.4 7.7 334 9.3
2006-05-16 07:50:57 51°13.902 2°55.576 339 7.9 335 9.3
2006-05-16 07:51:03 51°13.914 2°55.567 339.6 8 335 9.3
2006-05-16 07:51:07 51°13.923 2°55.561 340.2 8.1 336 9.3
2006-05-16 07:51:12 51°13.933 2°55.554 340.3 8.2 336 9.3
2006-05-16 07:51:18 51°13.946 2°55.545 340 8.3 336 9.3
2006-05-16 07:51:22 51°13.955 2°55.539 341.2 8.4 338 9.3
2006-05-16 07:51:28 51°13.968 2°55.531 342 8.4 338 9.3
2006-05-16 07:51:33 51°13.979 2°55.524 342.2 8.5 338 9.3
2006-05-16 07:51:38 51°13.989 2°55.517 341.9 8.5 337 9.3
2006-05-16 07:51:44 51°14.003 2°55.509 341.8 8.6 339 9.4
2006-05-16 07:51:48 51°14.012 2°55.504 342.5 8.6 338 9.3
2006-05-16 07:51:53 51°14.023 2°55.497 342.8 8.6 338 9.3
2006-05-16 07:51:58 51°14.034 2°55.49 342.6 8.6 338 9.4
2006-05-16 07:52:02 51°14.043 2°55.484 341.7 8.6 337 9.3
2006-05-16 07:52:08 51°14.056 2°55.475 341.2 8.6 337 9.4
2006-05-16 07:52:13 51°14.067 2°55.467 341.3 8.6 337 9.4
2006-05-16 07:52:18 51°14.078 2°55.46 341.4 8.6 336 9.4
2006-05-16 07:52:23 51°14.088 2°55.452 340.9 8.6 335 9.4
2006-05-16 07:52:28 51°14.099 2°55.443 339.6 8.6 335 9.4
2006-05-16 07:52:33 51°14.11 2°55.435 338.5 8.7 334 9.4
2006-05-16 07:52:38 51°14.121 2°55.426 337.7 8.6 334 -999
2006-05-16 07:52:43 51°14.131 2°55.418 337.6 8.7 334 9.4
2006-05-16 07:52:48 51°14.142 2°55.409 337.5 8.7 333 9.4
2006-05-16 07:52:52 51°14.15 2°55.402 336.6 8.6 332 9.4
2006-05-16 07:52:58 51°14.163 2°55.391 335.8 8.7 331 -999
2006-05-16 07:53:03 51°14.173 2°55.382 335.8 8.7 332 9.4
2006-05-16 07:53:08 51°14.184 2°55.372 334.8 8.6 329 9.3
2006-05-16 07:53:14 51°14.196 2°55.361 333.8 8.6 330 9.3
2006-05-16 07:53:18 51°14.204 2°55.352 332.2 8.6 327 9.3
2006-05-16 07:53:22 51°14.212 2°55.344 330.4 8.6 325 9.3
2006-05-16 07:53:28 51°14.223 2°55.33 328 8.6 323 5
2006-05-16 07:53:33 51°14.232 2°55.318 326.2 8.6 321 9.3
2006-05-16 07:53:38 51°14.241 2°55.306 325.7 8.5 321 9.3
2006-05-16 07:53:44 51°14.252 2°55.291 323.6 8.5 316 9.4
2006-05-16 07:53:48 51°14.258 2°55.28 319.9 8.4 314 9.4
2006-05-16 07:53:52 51°14.264 2°55.269 316.4 8.4 311 9.3
2006-05-16 07:53:58 51°14.273 2°55.251 314.2 8.4 310 -999
2006-05-16 07:54:03 51°14.28 2°55.236 312.5 8.4 308 9.3
2006-05-16 07:54:08 51°14.287 2°55.221 311 8.5 307 9.3
2006-05-16 07:54:12 51°14.292 2°55.209 309.7 8.5 305 9.3
2006-05-16 07:54:18 51°14.301 2°55.191 308.9 8.5 305 9.3
2006-05-16 07:54:23 51°14.307 2°55.175 308.6 8.5 306 10
2006-05-16 07:54:27 51°14.313 2°55.163 309.3 8.5 306 9.6
2006-05-16 07:54:32 51°14.32 2°55.148 309.9 8.5 306 9.5
2006-05-16 07:54:38 51°14.328 2°55.13 310.6 8.6 306 9.5
2006-05-16 07:54:43 51°14.336 2°55.114 310.6 8.6 306 9.3
2006-05-16 07:54:48 51°14.343 2°55.099 310.4 8.6 306 9.2
2006-05-16 07:54:53 51°14.35 2°55.083 310.6 8.6 307 9.3
2006-05-16 07:54:58 51°14.357 2°55.068 311.3 8.7 308 9.3
2006-05-16 07:55:03 51°14.365 2°55.053 312.2 8.7 309 9.5
2006-05-16 07:55:07 51°14.371 2°55.041 313 8.7 308 9.3
2006-05-16 07:55:13 51°14.38 2°55.024 313.3 8.7 309 9.3
2006-05-16 07:55:18 51°14.387 2°55.008 312.9 8.6 308 9.3
2006-05-16 07:55:23 51°14.394 2°54.993 312.1 8.6 306 9.3
2006-05-16 07:55:28 51°14.401 2°54.977 310.5 8.7 305 9.1
2006-05-16 07:55:33 51°14.408 2°54.96 308.9 8.8 303 9.5
2006-05-16 07:55:38 51°14.414 2°54.943 307.2 9.1 300 9.1
2006-05-16 07:55:43 51°14.42 2°54.924 305.1 9.4 297 9.5
2006-05-16 07:55:48 51°14.426 2°54.905 302.7 9.6 295 9.6
2006-05-16 07:55:53 51°14.43 2°54.884 300.7 9.9 292 9.6
2006-05-16 07:55:58 51°14.436 2°54.864 300.4 10.2 292 9.6
2006-05-16 07:56:03 51°14.441 2°54.842 300.2 10.4 291 9.4
2006-05-16 07:56:08 51°14.446 2°54.82 299.8 10.6 291 9.9
2006-05-16 07:56:12 51°14.451 2°54.802 299.3 10.9 290 9.1
2006-05-16 07:56:18 51°14.457 2°54.774 298.9 11 290 9.8
2006-05-16 07:56:23 51°14.462 2°54.751 298.6 11.3 290 9.4
2006-05-16 07:56:27 51°14.467 2°54.731 298.3 11.5 289 9.3
2006-05-16 07:56:33 51°14.473 2°54.702 297.6 11.8 289 9.9
2006-05-16 07:56:38 51°14.478 2°54.677 297 11.9 289 9.8
2006-05-16 07:56:43 51°14.484 2°54.652 296.7 12.1 289 9.7
2006-05-16 07:56:48 51°14.49 2°54.626 296.8 12.2 289 9.9
2006-05-16 07:56:53 51°14.495 2°54.6 296.8 12.3 289 9.5
2006-05-16 07:56:58 51°14.501 2°54.574 296.7 12.4 289 9.5
2006-05-16 07:57:03 51°14.506 2°54.548 296.5 12.5 289 10
2006-05-16 07:57:08 51°14.512 2°54.522 296.8 12.5 289 9.8
2006-05-16 07:57:13 51°14.518 2°54.496 297 12.6 289 9.7
2006-05-16 07:57:18 51°14.524 2°54.47 297.2 12.6 289 8.7
2006-05-16 07:57:23 51°14.53 2°54.443 297.3 12.7 290 10
2006-05-16 07:57:28 51°14.536 2°54.417 297.5 12.7 290 9.7
2006-05-16 07:57:32 51°14.541 2°54.396 298.1 12.6 291 10
2006-05-16 07:57:38 51°14.548 2°54.365 299 12.7 291 10.1
2006-05-16 07:57:42 51°14.554 2°54.344 299.7 12.7 292 10.1
2006-05-16 07:57:48 51°14.562 2°54.312 300.4 12.7 292 10
2006-05-16 07:57:53 51°14.569 2°54.286 300.7 12.7 292 10.3
2006-05-16 07:57:58 51°14.575 2°54.26 299.8 12.9 291 10.1
2006-05-16 07:58:03 51°14.581 2°54.233 298.7 13 289 10.2
2006-05-16 07:58:08 51°14.586 2°54.205 296.3 13.1 286 9.8
2006-05-16 07:58:12 51°14.589 2°54.182 293.7 13.2 285 9.8
2006-05-16 07:58:18 51°14.594 2°54.148 291.2 13.2 283 9.9
2006-05-16 07:58:23 51°14.598 2°54.119 289.3 13.3 281 9.7
2006-05-16 07:58:28 51°14.601 2°54.09 287.9 13.4 280 10.2
2006-05-16 07:58:32 51°14.603 2°54.066 287.3 13.5 279 9.4
2006-05-16 07:58:38 51°14.607 2°54.031 286.6 13.5 279 9.9
2006-05-16 07:58:43 51°14.61 2°54.002 286 13.5 279 10
2006-05-16 07:58:48 51°14.613 2°53.972 285.7 13.5 279 9.8
2006-05-16 07:58:53 51°14.615 2°53.942 285.4 13.5 279 10.2
2006-05-16 07:58:58 51°14.619 2°53.913 285.2 13.5 278 9.5
2006-05-16 07:59:03 51°14.621 2°53.883 285.2 13.5 278 9.5
2006-05-16 07:59:08 51°14.624 2°53.854 285.2 13.5 279 9.4
2006-05-16 07:59:12 51°14.626 2°53.83 285.6 13.4 279 9.3
2006-05-16 07:59:18 51°14.63 2°53.796 286.1 13.4 280 9
2006-05-16 07:59:23 51°14.634 2°53.767 287.4 13.3 281 8.9
2006-05-16 07:59:28 51°14.638 2°53.738 289 13.3 283 8.6
2006-05-16 07:59:33 51°14.643 2°53.71 290.3 13.2 284 8.2
2006-05-16 07:59:38 51°14.647 2°53.682 291.4 13.1 285 8
2006-05-16 07:59:43 51°14.652 2°53.654 292.3 13 285 7.9
2006-05-16 07:59:48 51°14.657 2°53.627 292.8 13 286 7.7
2006-05-16 07:59:52 51°14.66 2°53.605 293.1 13 285 7.7
2006-05-16 07:59:58 51°14.666 2°53.572 293.3 12.9 286 7.7
2006-05-16 08:00:03 51°14.671 2°53.544 293.1 13 284 7.7
2006-05-16 08:00:08 51°14.675 2°53.516 292.1 13 284 7.7
2006-05-16 08:00:12 51°14.678 2°53.493 291.5 13.1 283 7.7
2006-05-16 08:00:18 51°14.683 2°53.46 290.6 13.1 282 7.7
2006-05-16 08:00:23 51°14.686 2°53.431 289.4 13.1 280 7.7
2006-05-16 08:00:28 51°14.688 2°53.402 287.5 13.1 278 7.8
2006-05-16 08:00:32 51°14.689 2°53.379 284.3 13.2 274 7.7
2006-05-16 08:00:38 51°14.69 2°53.344 280.1 13.3 271 7.7
2006-05-16 08:00:43 51°14.689 2°53.314 277.2 13.3 269 7.7
2006-05-16 08:00:48 51°14.689 2°53.285 275.8 13.3 268 7.7
2006-05-16 08:00:52 51°14.688 2°53.262 274.3 13.3 267 7.7
2006-05-16 08:00:58 51°14.686 2°53.226 272.9 13.3 266 7.7
2006-05-16 08:01:03 51°14.685 2°53.197 271.8 13.3 265 7.7
2006-05-16 08:01:07 51°14.684 2°53.174 271.4 13.3 265 7.6
2006-05-16 08:01:13 51°14.682 2°53.139 271.1 13.3 265 5.6
2006-05-16 08:01:18 51°14.68 2°53.109 270.7 13.3 264 7.6
2006-05-16 08:01:24 51°14.678 2°53.074 270.5 13.3 265 7.6
2006-05-16 08:01:28 51°14.676 2°53.051 270.7 13.3 265 7.6
2006-05-16 08:01:33 51°14.675 2°53.021 271 13.4 266 7.7
2006-05-16 08:01:38 51°14.674 2°52.992 271.6 13.4 266 7.6
2006-05-16 08:01:43 51°14.673 2°52.962 272.1 13.4 267 7.7
2006-05-16 08:01:47 51°14.672 2°52.938 273.7 13.4 269 7.7
2006-05-16 08:01:53 51°14.673 2°52.903 275.6 13.4 271 7.7
2006-05-16 08:01:58 51°14.674 2°52.874 278 13.4 273 7.7
2006-05-16 08:02:02 51°14.675 2°52.85 280.1 13.3 275 7.8
2006-05-16 08:02:08 51°14.677 2°52.814 281.6 13.4 275 7.8
2006-05-16 08:02:12 51°14.679 2°52.791 282.4 13.4 277 7.8
2006-05-16 08:02:18 51°14.681 2°52.755 283 13.4 276 7.9
2006-05-16 08:02:22 51°14.683 2°52.732 283 13.3 276 7.9
2006-05-16 08:02:28 51°14.684 2°52.697 281.7 13.4 273 7.9
2006-05-16 08:02:32 51°14.684 2°52.673 279.5 13.5 271 8
2006-05-16 08:02:38 51°14.683 2°52.637 276.7 13.5 268 8
2006-05-16 08:02:43 51°14.682 2°52.607 273.7 13.5 266 8
2006-05-16 08:02:47 51°14.68 2°52.584 270.8 13.5 263 8
2006-05-16 08:02:53 51°14.677 2°52.548 268.9 13.5 263 8
2006-05-16 08:02:58 51°14.674 2°52.519 267.4 13.5 261 8
2006-05-16 08:03:03 51°14.671 2°52.489 266.3 13.5 260 8
2006-05-16 08:03:08 51°14.667 2°52.46 265.3 13.5 259 8.1
2006-05-16 08:03:13 51°14.664 2°52.43 264.4 13.5 259 8
2006-05-16 08:03:18 51°14.66 2°52.401 264.1 13.6 259 8
2006-05-16 08:03:23 51°14.656 2°52.372 263.4 13.5 257 8
2006-05-16 08:03:27 51°14.652 2°52.349 262.8 13.5 258 8.1
2006-05-16 08:03:33 51°14.647 2°52.314 262.5 13.5 258 8.1
2006-05-16 08:03:38 51°14.644 2°52.284 262.5 13.5 258 8
2006-05-16 08:03:43 51°14.64 2°52.255 262.9 13.5 259 8.1
2006-05-16 08:03:48 51°14.636 2°52.226 263.5 13.6 259 8.1
2006-05-16 08:03:53 51°14.633 2°52.196 264.3 13.6 259 8
2006-05-16 08:03:58 51°14.631 2°52.166 265.8 13.6 262 8.1
2006-05-16 08:04:03 51°14.629 2°52.137 267.8 13.5 264 8.1
2006-05-16 08:04:08 51°14.627 2°52.107 269.9 13.5 265 8.1
2006-05-16 08:04:13 51°14.626 2°52.077 271.3 13.5 266 8.1
2006-05-16 08:04:18 51°14.625 2°52.047 272.2 13.5 267 8.1
2006-05-16 08:04:23 51°14.624 2°52.018 273.2 13.5 267 8.1
2006-05-16 08:04:28 51°14.623 2°51.988 273.6 13.5 267 8.2
2006-05-16 08:04:33 51°14.622 2°51.958 273.6 13.5 266 8.3
2006-05-16 08:04:37 51°14.621 2°51.934 272.2 13.5 265 8.3
2006-05-16 08:04:43 51°14.618 2°51.898 271.1 13.6 264 8.4
2006-05-16 08:04:47 51°14.616 2°51.875 268.9 13.6 261 8.4
2006-05-16 08:04:52 51°14.612 2°51.845 265.3 13.6 260 8.3
2006-05-16 08:04:58 51°14.607 2°51.81 263.1 13.5 256 8.3
2006-05-16 08:05:03 51°14.602 2°51.781 261.2 13.6 256 8.4
2006-05-16 08:05:08 51°14.597 2°51.752 259.1 13.6 253 8.3
2006-05-16 08:05:12 51°14.592 2°51.729 258 13.6 253 8.3
2006-05-16 08:05:18 51°14.585 2°51.695 256.7 13.6 252 8.3
2006-05-16 08:05:23 51°14.579 2°51.667 255.5 13.6 251 8.3
2006-05-16 08:05:28 51°14.572 2°51.639 254.8 13.5 250 8.4
2006-05-16 08:05:33 51°14.565 2°51.611 254 13.6 249 8.4
2006-05-16 08:05:38 51°14.558 2°51.583 253.3 13.6 248 8.4
2006-05-16 08:05:42 51°14.552 2°51.561 252.5 13.7 248 8.3
2006-05-16 08:05:48 51°14.544 2°51.527 252.6 13.7 249 8.3
2006-05-16 08:05:53 51°14.538 2°51.498 254.6 13.7 250 8.3
2006-05-16 08:05:58 51°14.532 2°51.469 256.3 13.6 252 8.3
2006-05-16 08:06:03 51°14.528 2°51.44 258.3 13.6 255 8.2
2006-05-16 08:06:08 51°14.523 2°51.411 260.9 13.6 256 8.3
2006-05-16 08:06:12 51°14.52 2°51.387 263.2 13.6 259 8.3
2006-05-16 08:06:18 51°14.516 2°51.352 264.7 13.6 259 8.4
2006-05-16 08:06:23 51°14.513 2°51.322 265.5 13.6 260 8.3
2006-05-16 08:06:28 51°14.509 2°51.293 266.2 13.6 260 8.3
2006-05-16 08:06:33 51°14.506 2°51.263 266.3 13.7 260 8.3
2006-05-16 08:06:38 51°14.503 2°51.233 266.7 13.7 261 8.3
2006-05-16 08:06:43 51°14.5 2°51.203 266.9 13.7 261 8.3
2006-05-16 08:06:48 51°14.497 2°51.173 267 13.6 261 8.4
2006-05-16 08:06:52 51°14.495 2°51.15 267.1 13.7 261 8.3
2006-05-16 08:06:58 51°14.491 2°51.114 267.3 13.7 261 8.4
2006-05-16 08:07:03 51°14.488 2°51.084 267 13.7 260 8.4
2006-05-16 08:07:08 51°14.484 2°51.054 266.2 13.7 260 8.4
2006-05-16 08:07:13 51°14.48 2°51.025 265.1 13.7 258 8.4
2006-05-16 08:07:18 51°14.475 2°50.995 263.4 13.7 256 8.5
2006-05-16 08:07:23 51°14.47 2°50.966 261.5 13.7 254 8.4
2006-05-16 08:07:28 51°14.465 2°50.937 260 13.8 254 8.5
2006-05-16 08:07:33 51°14.459 2°50.908 259.1 13.8 253 8.4
2006-05-16 08:07:38 51°14.454 2°50.879 258.3 13.8 253 8.4
2006-05-16 08:07:42 51°14.449 2°50.856 258.1 13.7 253 8.4
2006-05-16 08:07:48 51°14.442 2°50.821 258.1 13.7 253 8.5
2006-05-16 08:07:53 51°14.437 2°50.792 258.3 13.7 253 8.5
2006-05-16 08:07:58 51°14.431 2°50.763 258.9 13.8 254 8.5
2006-05-16 08:08:02 51°14.427 2°50.739 259.5 13.8 255 8.5
2006-05-16 08:08:08 51°14.422 2°50.704 261.2 13.7 257 8.6
2006-05-16 08:08:12 51°14.419 2°50.68 262.9 13.7 258 8.5
2006-05-16 08:08:18 51°14.415 2°50.644 264.4 13.7 259 8.5
2006-05-16 08:08:21 51°14.413 2°50.626 265.3 13.7 260 8.5
2006-05-16 08:08:28 51°14.408 2°50.584 265.7 13.7 260 8.5
2006-05-16 08:08:34 51°14.404 2°50.548 266.3 13.8 260 8.6
2006-05-16 08:08:38 51°14.402 2°50.524 266.8 13.8 261 8.6
2006-05-16 08:08:43 51°14.399 2°50.494 267 13.8 260 8.7
2006-05-16 08:08:48 51°14.396 2°50.464 266.9 13.8 261 8.7
2006-05-16 08:08:53 51°14.392 2°50.434 266.3 13.8 259 8.7
2006-05-16 08:08:58 51°14.389 2°50.404 266.2 13.8 260 8.8
2006-05-16 08:09:03 51°14.385 2°50.374 265.6 13.9 258 8.8
2006-05-16 08:09:08 51°14.381 2°50.344 263.9 13.9 257 8.8
2006-05-16 08:09:11 51°14.378 2°50.326 262.4 13.9 255 8.8
2006-05-16 08:09:18 51°14.371 2°50.285 260.9 13.9 255 8.9
2006-05-16 08:09:23 51°14.365 2°50.255 260.2 13.9 254 8.9
2006-05-16 08:09:28 51°14.36 2°50.226 259.8 13.9 254 8.8
2006-05-16 08:09:33 51°14.355 2°50.196 260.1 13.9 255 8.8
2006-05-16 08:09:38 51°14.35 2°50.167 260.3 13.9 255 8.9
2006-05-16 08:09:41 51°14.348 2°50.149 261.4 13.9 257 8.9
2006-05-16 08:09:48 51°14.342 2°50.107 262.4 13.9 257 8.9
2006-05-16 08:09:53 51°14.338 2°50.077 263.8 13.9 259 8.9
2006-05-16 08:09:57 51°14.335 2°50.053 264.6 13.9 258 8.9
2006-05-16 08:10:03 51°14.331 2°50.017 264.9 13.9 259 9
2006-05-16 08:10:08 51°14.327 2°49.986 265.2 13.9 259 9
2006-05-16 08:10:13 51°14.324 2°49.956 265.6 13.9 260 9.1
2006-05-16 08:10:18 51°14.32 2°49.926 265.6 13.9 259 9.1
2006-05-16 08:10:23 51°14.316 2°49.895 265.6 13.9 259 9.2
2006-05-16 08:10:28 51°14.313 2°49.865 265.3 13.9 259 9.3
2006-05-16 08:10:33 51°14.309 2°49.835 265.1 13.9 259 9.3
2006-05-16 08:10:38 51°14.305 2°49.805 264.9 14 258 9.4
2006-05-16 08:10:43 51°14.301 2°49.774 264.8 13.9 259 9.5
2006-05-16 08:10:48 51°14.298 2°49.744 264.5 14 258 9.5
2006-05-16 08:10:53 51°14.293 2°49.714 264.2 14 258 9.6
2006-05-16 08:10:58 51°14.289 2°49.684 264 14 257 9.6
2006-05-16 08:11:03 51°14.285 2°49.654 263.9 14 257 9.7
2006-05-16 08:11:08 51°14.28 2°49.624 263.4 14 257 9.7
2006-05-16 08:11:13 51°14.276 2°49.594 263.1 13.9 257 9.7
2006-05-16 08:11:18 51°14.271 2°49.564 262 14 255 9.7
2006-05-16 08:11:23 51°14.266 2°49.535 261.2 13.9 255 9.7
2006-05-16 08:11:28 51°14.261 2°49.505 260.5 14 255 9.7
2006-05-16 08:11:32 51°14.256 2°49.481 260.4 14 254 9.8
2006-05-16 08:11:38 51°14.25 2°49.446 260.4 14 255 9.8
2006-05-16 08:11:42 51°14.246 2°49.422 260.4 13.9 255 9.9
2006-05-16 08:11:48 51°14.24 2°49.386 260.8 13.9 255 9.8
2006-05-16 08:11:53 51°14.235 2°49.356 261.9 13.9 256 9.8
2006-05-16 08:11:58 51°14.231 2°49.326 263 14 258 9.8
2006-05-16 08:12:03 51°14.227 2°49.296 263.8 13.9 257 9.9
2006-05-16 08:12:08 51°14.223 2°49.266 264.1 13.9 258 10
2006-05-16 08:12:13 51°14.219 2°49.235 264.5 13.9 258 10
2006-05-16 08:12:18 51°14.216 2°49.205 264.7 13.9 259 9.9
2006-05-16 08:12:23 51°14.211 2°49.175 264.8 14 258 9.8
2006-05-16 08:12:28 51°14.208 2°49.145 264.6 13.9 258 9.9
2006-05-16 08:12:32 51°14.204 2°49.121 264.5 14 258 9.9
2006-05-16 08:12:38 51°14.199 2°49.085 264.2 14 258 9.9
2006-05-16 08:12:43 51°14.195 2°49.055 264.1 13.9 258 10
2006-05-16 08:12:48 51°14.191 2°49.024 263.7 14 257 10
2006-05-16 08:12:53 51°14.187 2°48.994 263.4 13.9 257 10.1
2006-05-16 08:12:58 51°14.182 2°48.964 263.3 14 257 10.1
2006-05-16 08:13:02 51°14.179 2°48.94 262.9 13.9 257 10
2006-05-16 08:13:08 51°14.173 2°48.905 262.8 13.9 256 10.1
2006-05-16 08:13:13 51°14.169 2°48.874 262.1 14 256 10.1
2006-05-16 08:13:18 51°14.164 2°48.845 262.1 14 256 10
2006-05-16 08:13:23 51°14.159 2°48.815 261.9 13.9 256 9.9
2006-05-16 08:13:28 51°14.155 2°48.785 261.8 13.9 256 10.1
2006-05-16 08:13:33 51°14.15 2°48.755 262.5 14 257 10.2
2006-05-16 08:13:38 51°14.146 2°48.724 263.4 14 258 10
2006-05-16 08:13:42 51°14.143 2°48.7 264.2 13.9 258 10
2006-05-16 08:13:48 51°14.139 2°48.664 264.7 13.9 259 9.9
2006-05-16 08:13:53 51°14.135 2°48.639 264.9 13.9 258 10
2006-05-16 08:13:58 51°14.131 2°48.609 264.9 13.9 258 10
2006-05-16 08:14:04 51°14.126 2°48.573 264.5 13.9 258 10.1
2006-05-16 08:14:09 51°14.122 2°48.543 264 14 257 10.1
2006-05-16 08:14:13 51°14.118 2°48.519 263.2 14 256 10.1
2006-05-16 08:14:19 51°14.112 2°48.483 262.7 14 256 10
2006-05-16 08:14:24 51°14.107 2°48.453 261.9 13.9 255 10
2006-05-16 08:14:28 51°14.103 2°48.429 260.9 14 255 10
2006-05-16 08:14:33 51°14.098 2°48.4 260.6 13.5 254 10
2006-05-16 08:14:39 51°14.092 2°48.368 260.1 12.8 254 10
2006-05-16 08:14:44 51°14.088 2°48.342 260.1 12.3 254 9.9
2006-05-16 08:14:49 51°14.083 2°48.318 260.4 11.8 254 10.1
2006-05-16 08:14:54 51°14.079 2°48.294 260.9 11.1 255 10.1
2006-05-16 08:14:59 51°14.076 2°48.273 261.7 10.4 256 10.1
2006-05-16 08:15:04 51°14.073 2°48.251 262.5 10 256 10.2
2006-05-16 08:15:09 51°14.07 2°48.231 263.4 9.5 257 10.2
2006-05-16 08:15:13 51°14.068 2°48.216 264.4 8.9 257 10.2
2006-05-16 08:15:19 51°14.065 2°48.194 265.3 8.4 258 10.3
2006-05-16 08:15:23 51°14.063 2°48.181 266.7 7.9 259 10.2
2006-05-16 08:15:29 51°14.061 2°48.161 267.7 7.5 259 10.2
2006-05-16 08:15:33 51°14.06 2°48.149 269.1 7.1 261 10.3
2006-05-16 08:15:39 51°14.058 2°48.132 270.5 6.7 261 10.3
2006-05-16 08:15:44 51°14.057 2°48.118 271.6 6.3 262 10.3
2006-05-16 08:15:49 51°14.056 2°48.105 272.7 6.1 262 10.3
2006-05-16 08:15:53 51°14.055 2°48.095 274.3 5.7 263 10.2
2006-05-16 08:15:59 51°14.054 2°48.08 275 5.5 263 10.3
2006-05-16 08:16:04 51°14.053 2°48.069 276.1 5.3 264 10.3
2006-05-16 08:16:09 51°14.053 2°48.058 276.9 4.9 265 10.3
2006-05-16 08:16:13 51°14.052 2°48.05 278.1 4.3 266 10.3
2006-05-16 08:16:19 51°14.052 2°48.04 281 3.9 267 10.2
2006-05-16 08:16:24 51°14.052 2°48.033 285.4 3.5 270 10.2
2006-05-16 08:16:29 51°14.052 2°48.027 290.7 3 269 10.2
2006-05-16 08:16:34 51°14.052 2°48.022 296.3 2.5 271 10.3
2006-05-16 08:16:39 51°14.052 2°48.018 302 1.8 264 10.3
2006-05-16 08:16:44 51°14.051 2°48.015 306.8 1.5 255 10.3
2006-05-16 08:16:49 51°14.05 2°48.013 310.8 1.3 240 10.3
2006-05-16 08:16:53 51°14.049 2°48.012 314.8 1.1 224 10.3
2006-05-16 08:16:59 51°14.047 2°48.01 318.8 1.2 217 10.3
2006-05-16 08:17:04 51°14.046 2°48.008 322.2 1.1 216 10.3
2006-05-16 08:17:09 51°14.045 2°48.007 325 1.1 217 10.3
2006-05-16 08:17:13 51°14.044 2°48.006 327.5 1.1 217 10.3
2006-05-16 08:17:19 51°14.042 2°48.004 329.6 1.1 219 10.3
2006-05-16 08:17:24 51°14.041 2°48.003 331.7 1 217 10.3
2006-05-16 08:17:29 51°14.04 2°48.001 333.7 1.1 220 5.6
2006-05-16 08:17:35 51°14.038 2°47.999 335.6 1.1 219 -999
2006-05-16 08:17:39 51°14.037 2°47.998 337.7 1.2 220 4.6
2006-05-16 08:17:45 51°14.036 2°47.996 339.2 1.1 218 -999
2006-05-16 08:17:50 51°14.035 2°47.994 340.4 1.1 222 4.4
2006-05-16 08:17:55 51°14.034 2°47.993 341.9 1 219 4.5
2006-05-16 08:18:00 51°14.032 2°47.992 343.4 1.1 220 -999
2006-05-16 08:18:04 51°14.032 2°47.991 344.8 1 218 4.9
2006-05-16 08:18:09 51°14.031 2°47.989 345.7 1.1 224 -999
2006-05-16 08:18:13 51°14.03 2°47.988 346.7 1 220 -999
2006-05-16 08:18:19 51°14.028 2°47.986 347.6 1.1 223 -999
2006-05-16 08:18:24 51°14.027 2°47.984 348.2 1 223 4.5
2006-05-16 08:18:29 51°14.026 2°47.983 348.8 1 222 4.8
2006-05-16 08:18:33 51°14.025 2°47.982 349.2 1 224 4.6
2006-05-16 08:18:39 51°14.024 2°47.98 350 1 222 4.6
2006-05-16 08:18:44 51°14.023 2°47.978 350.5 1.1 226 4.7
2006-05-16 08:18:49 51°14.022 2°47.977 350.7 1 221 4.7
2006-05-16 08:18:54 51°14.021 2°47.975 351 1 224 4.7
2006-05-16 08:18:59 51°14.02 2°47.974 351.9 1 224 10.3
2006-05-16 08:19:04 51°14.019 2°47.972 352.3 1 228 10.2
2006-05-16 08:19:09 51°14.018 2°47.971 353 0.9 223 10.3
2006-05-16 08:19:13 51°14.017 2°47.969 353.5 1 228 10.3
2006-05-16 08:19:19 51°14.016 2°47.968 354.1 0.9 221 10.3
2006-05-16 08:19:24 51°14.015 2°47.966 354.8 1 229 10.3
2006-05-16 08:19:28 51°14.014 2°47.965 355.2 0.9 220 10.2
2006-05-16 08:19:33 51°14.013 2°47.964 356 1 222 10.2
2006-05-16 08:19:39 51°14.013 2°47.962 356.6 0.9 219 10.2
2006-05-16 08:19:44 51°14.012 2°47.961 357.3 0.9 224 10.2
2006-05-16 08:19:49 51°14.011 2°47.96 358.1 0.9 221 10.2
2006-05-16 08:19:54 51°14.01 2°47.958 358.7 0.9 225 10.3
2006-05-16 08:19:59 51°14.009 2°47.957 359.2 0.9 224 10.4
2006-05-16 08:20:04 51°14.008 2°47.955 359.9 0.9 224 10.4
2006-05-16 08:20:09 51°14.007 2°47.954 0.1 0.9 225 10.3
2006-05-16 08:20:14 51°14.006 2°47.953 1 0.9 224 10.3
2006-05-16 08:20:18 51°14.005 2°47.951 1.5 0.9 225 10.3
2006-05-16 08:20:24 51°14.004 2°47.95 1.9 0.9 225 10.3
2006-05-16 08:20:29 51°14.003 2°47.949 2.5 0.9 221 10.2
2006-05-16 08:20:33 51°14.003 2°47.948 3 0.9 223 10.2
2006-05-16 08:20:39 51°14.002 2°47.946 3.6 0.8 225 10.3
2006-05-16 08:20:44 51°14.001 2°47.944 4 0.9 227 10.2
2006-05-16 08:20:48 51°14 2°47.943 4.7 0.9 223 10.2
2006-05-16 08:20:53 51°13.999 2°47.942 4.9 0.9 224 10.3
2006-05-16 08:20:58 51°13.999 2°47.94 5.1 0.9 224 10.3
2006-05-16 08:21:03 51°13.998 2°47.94 5.2 0.9 220 10.4
2006-05-16 08:21:08 51°13.997 2°47.938 5.5 0.8 223 10.3
2006-05-16 08:21:13 51°13.996 2°47.937 5.8 0.8 227 10.3
2006-05-16 08:21:17 51°13.995 2°47.936 6.1 0.9 227 10.3
2006-05-16 08:21:23 51°13.994 2°47.934 6.4 0.9 226 10.3
2006-05-16 08:21:29 51°13.993 2°47.932 6.4 0.9 226 10.3
2006-05-16 08:21:33 51°13.993 2°47.931 6.4 0.9 224 10.3
2006-05-16 08:21:38 51°13.992 2°47.93 6.3 0.8 228 10.3
2006-05-16 08:21:44 51°13.991 2°47.928 6.1 0.9 229 10.4
2006-05-16 08:21:49 51°13.99 2°47.927 6.1 0.8 225 10.4
2006-05-16 08:21:54 51°13.989 2°47.925 6 0.8 226 10.4
2006-05-16 08:21:59 51°13.988 2°47.924 5.8 0.9 228 10.3
2006-05-16 08:22:03 51°13.988 2°47.922 5.5 0.9 230 10.3
2006-05-16 08:22:09 51°13.986 2°47.921 5.4 0.9 230 10.3
2006-05-16 08:22:13 51°13.986 2°47.919 5 0.9 230 10.4
2006-05-16 08:22:16 51°13.985 2°47.919 4.6 0.9 230 10.3
2006-05-16 08:22:23 51°13.984 2°47.916 4.5 0.9 230 10.3
2006-05-16 08:22:28 51°13.983 2°47.915 4.3 0.9 229 10.3
2006-05-16 08:22:34 51°13.983 2°47.913 4.1 0.9 228 10.3
2006-05-16 08:22:37 51°13.982 2°47.913 3.6 0.9 230 10.3
2006-05-16 08:22:43 51°13.981 2°47.91 3.4 0.9 233 10.3
2006-05-16 08:22:47 51°13.981 2°47.909 2.8 0.9 231 10.3
2006-05-16 08:22:53 51°13.98 2°47.908 2.4 0.9 230 10.3
2006-05-16 08:22:57 51°13.979 2°47.907 2 0.8 231 10.3
2006-05-16 08:23:03 51°13.978 2°47.905 1.7 0.8 230 10.3
2006-05-16 08:23:07 51°13.977 2°47.903 1.1 0.9 233 10.2
2006-05-16 08:23:13 51°13.977 2°47.901 0.9 0.9 230 10.3
2006-05-16 08:23:19 51°13.976 2°47.9 0.3 1 236 10.3
2006-05-16 08:23:24 51°13.975 2°47.898 -999 0.8 232 10.3
2006-05-16 08:23:28 51°13.974 2°47.897 359.6 1 235 10.3
2006-05-16 08:23:33 51°13.974 2°47.895 359 0.9 232 10.3
2006-05-16 08:23:38 51°13.973 2°47.894 358.7 0.9 234 10.2
2006-05-16 08:23:43 51°13.972 2°47.893 358.5 0.8 227 10.3
2006-05-16 08:23:48 51°13.971 2°47.891 358.5 0.9 235 10.2
2006-05-16 08:23:54 51°13.97 2°47.889 358.5 0.8 229 10.2
2006-05-16 08:23:59 51°13.97 2°47.888 358.4 0.9 234 10.2
2006-05-16 08:24:03 51°13.969 2°47.887 358.1 0.8 233 10.3
2006-05-16 08:24:09 51°13.968 2°47.885 357.9 0.9 235 10.3
2006-05-16 08:24:13 51°13.967 2°47.884 357.4 0.8 231 10.3
2006-05-16 08:24:17 51°13.967 2°47.882 356.4 0.8 234 10.3
2006-05-16 08:24:23 51°13.966 2°47.881 356 0.9 233 10.3
2006-05-16 08:24:28 51°13.965 2°47.879 355.5 0.8 234 10.3
2006-05-16 08:24:33 51°13.965 2°47.878 355 0.9 235 10.3
2006-05-16 08:24:37 51°13.964 2°47.877 354.5 0.8 235 10.3
2006-05-16 08:24:43 51°13.964 2°47.874 354 0.9 236 10.3
2006-05-16 08:24:48 51°13.963 2°47.873 353.6 0.8 232 10.3
2006-05-16 08:24:54 51°13.962 2°47.872 353.1 0.9 235 10.3
2006-05-16 08:24:59 51°13.961 2°47.87 352.6 0.8 232 10.3
2006-05-16 08:25:03 51°13.961 2°47.869 352 0.9 235 10.3
2006-05-16 08:25:09 51°13.96 2°47.867 351.7 0.8 234 10.2
2006-05-16 08:25:13 51°13.959 2°47.866 351.1 0.8 236 10.3
2006-05-16 08:25:19 51°13.958 2°47.864 350.9 0.8 231 10.3
2006-05-16 08:25:24 51°13.958 2°47.862 350.5 0.8 233 10.3
2006-05-16 08:25:29 51°13.957 2°47.861 350.2 0.8 232 10.2
2006-05-16 08:25:33 51°13.956 2°47.859 349.8 0.9 233 10.3
2006-05-16 08:25:39 51°13.956 2°47.858 349.4 0.8 231 10.3
2006-05-16 08:25:43 51°13.955 2°47.857 349.2 0.8 234 10.3
2006-05-16 08:25:48 51°13.954 2°47.855 349.1 0.8 232 10.3
2006-05-16 08:25:53 51°13.954 2°47.854 348.9 0.8 234 10.2
2006-05-16 08:25:58 51°13.953 2°47.852 348.7 0.8 236 10.3
2006-05-16 08:26:04 51°13.953 2°47.85 348.3 0.8 252 10.3
2006-05-16 08:26:09 51°13.953 2°47.849 348 0.9 268 10.3
2006-05-16 08:26:13 51°13.953 2°47.847 348.1 0.9 286 10.3
2006-05-16 08:26:18 51°13.954 2°47.844 348.3 1.3 300 10.3
2006-05-16 08:26:24 51°13.957 2°47.841 349 2.1 324 10.3
2006-05-16 08:26:29 51°13.962 2°47.837 350.3 3 328 10.3
2006-05-16 08:26:34 51°13.966 2°47.834 352 3.6 334 10.2
2006-05-16 08:26:38 51°13.971 2°47.831 354.2 4.4 338 10.2
2006-05-16 08:26:43 51°13.977 2°47.828 357 4.8 343 10.3
2006-05-16 08:26:48 51°13.985 2°47.825 359.3 5 344 10.1
2006-05-16 08:26:53 51°13.992 2°47.823 2.2 5.4 349 10.2
2006-05-16 08:26:57 51°13.998 2°47.821 5.3 5.8 353 10.3
2006-05-16 08:27:04 51°14.01 2°47.821 9.1 5.9 358 10.2
2006-05-16 08:27:08 51°14.016 2°47.821 12.6 6.1 1 10.2
2006-05-16 08:27:13 51°14.025 2°47.823 16.2 6.2 5 10.3
2006-05-16 08:27:19 51°14.036 2°47.826 19.9 6.3 11 10.3
2006-05-16 08:27:24 51°14.044 2°47.831 23 6.4 16 10.3
2006-05-16 08:27:28 51°14.051 2°47.835 29.3 6.4 22 10.2
2006-05-16 08:27:33 51°14.057 2°47.843 36.4 6.3 33 10.2
2006-05-16 08:27:39 51°14.066 2°47.854 43.4 6.3 40 10.2
2006-05-16 08:27:43 51°14.07 2°47.863 50.1 6.2 50 10.3
2006-05-16 08:27:48 51°14.074 2°47.874 57.3 6 57 10.3
2006-05-16 08:27:53 51°14.077 2°47.886 63.8 5.7 65 10.2
2006-05-16 08:27:59 51°14.08 2°47.899 69.5 5.4 70 10.4
2006-05-16 08:28:03 51°14.082 2°47.908 73.4 5.3 73 10.3
2006-05-16 08:28:08 51°14.084 2°47.919 75 5.1 75 10.4
2006-05-16 08:28:14 51°14.086 2°47.931 75.5 4.9 75 10.4
2006-05-16 08:28:18 51°14.087 2°47.94 76 4.7 76 10.3
2006-05-16 08:28:24 51°14.088 2°47.952 76 4.6 79 10.3
2006-05-16 08:28:28 51°14.09 2°47.959 76.1 4.4 77 10.2
2006-05-16 08:28:33 51°14.091 2°47.969 76.8 4.3 81 10.4
2006-05-16 08:28:37 51°14.091 2°47.976 77.7 4.1 80 10.4
2006-05-16 08:28:44 51°14.092 2°47.988 79.1 4 84 10.4
2006-05-16 08:28:49 51°14.092 2°47.996 80.3 3.8 84 10.4
2006-05-16 08:28:53 51°14.093 2°48.003 81.7 3.8 89 10.2
2006-05-16 08:28:59 51°14.093 2°48.012 82.6 3.6 86 10.3
2006-05-16 08:29:04 51°14.093 2°48.021 83.3 3.7 91 10.3
2006-05-16 08:29:09 51°14.093 2°48.028 83.8 3.5 87 10.3
2006-05-16 08:29:13 51°14.093 2°48.034 84.1 3.5 93 10.3
2006-05-16 08:29:19 51°14.093 2°48.044 84.6 3.4 88 10.3
2006-05-16 08:29:23 51°14.093 2°48.05 84.8 3.5 93 10.3
2006-05-16 08:29:28 51°14.093 2°48.057 85 3.4 91 10.3
2006-05-16 08:29:33 51°14.092 2°48.065 85.2 3.4 94 10.3
2006-05-16 08:29:39 51°14.092 2°48.073 85.4 3.3 90 10.3
2006-05-16 08:29:43 51°14.092 2°48.079 85.5 3.4 95 10.3
2006-05-16 08:29:49 51°14.092 2°48.088 85.6 3.3 91 10.2
2006-05-16 08:29:53 51°14.091 2°48.094 85.6 3.3 94 10.3
2006-05-16 08:29:59 51°14.091 2°48.102 85.8 3.2 90 10.3
2006-05-16 08:30:03 51°14.091 2°48.108 85.8 3.3 95 10.3
2006-05-16 08:30:09 51°14.091 2°48.117 85.9 3.3 94 10.3
2006-05-16 08:30:13 51°14.09 2°48.123 86 3.2 96 10.3
2006-05-16 08:30:19 51°14.09 2°48.131 86.1 3.2 92 10.3
2006-05-16 08:30:23 51°14.09 2°48.137 86.2 3.2 95 10.3
2006-05-16 08:30:28 51°14.09 2°48.144 86.3 3.2 92 10.3
2006-05-16 08:30:33 51°14.089 2°48.151 86.3 3.2 96 10.3
2006-05-16 08:30:39 51°14.089 2°48.159 86.3 3.2 93 10.3
2006-05-16 08:30:44 51°14.088 2°48.166 86.4 3.2 95 10.3
2006-05-16 08:30:49 51°14.088 2°48.173 86.3 3.2 94 10.3
2006-05-16 08:30:53 51°14.088 2°48.179 86.4 3.2 97 10.3
2006-05-16 08:30:59 51°14.087 2°48.187 86.9 3.1 96 10.3
2006-05-16 08:31:03 51°14.087 2°48.192 87.8 3.1 97 10.3
2006-05-16 08:31:09 51°14.086 2°48.201 89.3 3.1 99 10.3
2006-05-16 08:31:13 51°14.085 2°48.206 91.1 3.2 101 10.3
2006-05-16 08:31:17 51°14.084 2°48.211 92.8 3.1 104 10.4
2006-05-16 08:31:23 51°14.083 2°48.219 94 3.1 106 10.3
2006-05-16 08:31:27 51°14.082 2°48.225 94.8 3.1 106 10.3
2006-05-16 08:31:34 51°14.08 2°48.234 95.7 3.1 106 10.3
2006-05-16 08:31:39 51°14.079 2°48.241 96.4 3.2 108 10.3
2006-05-16 08:31:43 51°14.078 2°48.246 96.8 3.1 108 10.3
2006-05-16 08:31:49 51°14.076 2°48.254 97.2 3.1 108 10.3
2006-05-16 08:31:54 51°14.074 2°48.261 97.3 3.1 108 10.3
2006-05-16 08:31:59 51°14.073 2°48.267 97.3 3.1 109 10.3
2006-05-16 08:32:04 51°14.072 2°48.274 97.2 3.1 109 10.3
2006-05-16 08:32:08 51°14.07 2°48.279 97.2 3.1 108 10.3
2006-05-16 08:32:13 51°14.069 2°48.285 97.7 3.2 111 10.4
2006-05-16 08:32:19 51°14.067 2°48.294 98.6 3.2 110 10.2
2006-05-16 08:32:24 51°14.065 2°48.3 99.5 3.3 112 10.2
2006-05-16 08:32:28 51°14.064 2°48.305 100.5 3.3 112 10.3
2006-05-16 08:32:33 51°14.062 2°48.312 101.6 3.3 114 10.3
2006-05-16 08:32:39 51°14.059 2°48.32 102.8 3.3 116 10.2
2006-05-16 08:32:44 51°14.057 2°48.326 104 3.2 117 10.2
2006-05-16 08:32:49 51°14.055 2°48.332 105.2 3.2 118 10.2
2006-05-16 08:32:54 51°14.053 2°48.339 105.5 3.3 119 10.3
2006-05-16 08:32:59 51°14.051 2°48.345 105.2 3.3 118 10.3
2006-05-16 08:33:04 51°14.049 2°48.351 104.9 3.2 119 10.2
2006-05-16 08:33:08 51°14.047 2°48.356 104.2 3.2 117 10.2
2006-05-16 08:33:13 51°14.046 2°48.363 103.3 3.2 115 10.2
2006-05-16 08:33:19 51°14.043 2°48.371 102.4 3.2 115 10.3
2006-05-16 08:33:23 51°14.042 2°48.376 101.6 3.2 113 10.3
2006-05-16 08:33:29 51°14.04 2°48.384 100.5 3.2 112 10.3
2006-05-16 08:33:33 51°14.039 2°48.389 99.4 3.1 111 10.3
2006-05-16 08:33:37 51°14.037 2°48.394 98.2 3.1 112 10.3
2006-05-16 08:33:43 51°14.036 2°48.402 97.2 3.1 109 10.3
2006-05-16 08:33:47 51°14.034 2°48.407 96.2 3.1 109 10.3
2006-05-16 08:33:53 51°14.033 2°48.415 95.5 3.1 107 10.3
2006-05-16 08:33:59 51°14.032 2°48.422 94.7 3.1 107 10.3
2006-05-16 08:34:03 51°14.031 2°48.428 93.8 3 104 10.2
2006-05-16 08:34:08 51°14.03 2°48.434 93 3.1 102 10.3
2006-05-16 08:34:13 51°14.029 2°48.441 90.8 3.1 99 10.4
2006-05-16 08:34:19 51°14.029 2°48.45 89.1 3.1 96 10.3
2006-05-16 08:34:23 51°14.029 2°48.455 85.6 3.2 92 10.2
2006-05-16 08:34:28 51°14.029 2°48.462 82.6 3.2 89 10.3
2006-05-16 08:34:33 51°14.029 2°48.469 79.3 3.2 86 10.2
2006-05-16 08:34:37 51°14.03 2°48.474 76.1 3.2 79 10.1
2006-05-16 08:34:44 51°14.032 2°48.485 73.8 3.3 78 10.3
2006-05-16 08:34:49 51°14.033 2°48.492 72.2 3.3 73 10.1
2006-05-16 08:34:54 51°14.034 2°48.499 70.4 3.3 71 10.2
2006-05-16 08:34:59 51°14.036 2°48.505 68.9 3.4 69 10.1
2006-05-16 08:35:03 51°14.038 2°48.511 67.2 3.4 67 10.1
2006-05-16 08:35:09 51°14.04 2°48.519 65.5 3.4 67 10.1
2006-05-16 08:35:13 51°14.042 2°48.525 63.3 3.5 62 10
2006-05-16 08:35:17 51°14.044 2°48.53 62 3.5 63 10.2
2006-05-16 08:35:23 51°14.047 2°48.538 62.1 3.5 60 10
2006-05-16 08:35:29 51°14.05 2°48.546 62.1 3.6 63 10.2
2006-05-16 08:35:34 51°14.052 2°48.553 62.2 3.5 61 10.1
2006-05-16 08:35:37 51°14.054 2°48.557 62.1 3.4 60 10.1
2006-05-16 08:35:43 51°14.056 2°48.565 62 3.3 60 10.2
2006-05-16 08:35:47 51°14.058 2°48.57 61.6 3.3 62 10.2
2006-05-16 08:35:53 51°14.061 2°48.578 61.3 3.3 59 10.3
2006-05-16 08:35:59 51°14.063 2°48.585 61.3 3.2 61 10.2
2006-05-16 08:36:03 51°14.065 2°48.59 61.3 3.2 58 10.2
2006-05-16 08:36:08 51°14.067 2°48.596 61 3.1 61 10.2
2006-05-16 08:36:13 51°14.07 2°48.602 60.9 3.1 57 10.2
2006-05-16 08:36:17 51°14.071 2°48.607 60.9 3.1 61 10.3
2006-05-16 08:36:23 51°14.074 2°48.613 60.7 3.1 59 10.4
2006-05-16 08:36:28 51°14.076 2°48.619 60.6 3.1 61 10.2
2006-05-16 08:36:34 51°14.078 2°48.626 60.4 3 58 10.3
2006-05-16 08:36:39 51°14.081 2°48.632 60.3 3 59 10.2
2006-05-16 08:36:43 51°14.082 2°48.636 60 3 56 10.2
2006-05-16 08:36:48 51°14.085 2°48.642 59.5 3 59 10.2
2006-05-16 08:36:53 51°14.087 2°48.647 59.1 3 55 10.2
2006-05-16 08:36:59 51°14.09 2°48.654 58.7 3 57 10.2
2006-05-16 08:37:03 51°14.092 2°48.658 58.3 3 53 10.2
2006-05-16 08:37:08 51°14.094 2°48.663 57.7 2.9 55 10.2
2006-05-16 08:37:14 51°14.097 2°48.67 57.2 3 54 10.2
2006-05-16 08:37:19 51°14.099 2°48.675 56.6 2.9 53 10.3
2006-05-16 08:37:24 51°14.102 2°48.68 56.3 2.9 53 10.2
2006-05-16 08:37:29 51°14.104 2°48.685 55.9 2.9 54 10.3
2006-05-16 08:37:33 51°14.106 2°48.689 55.9 2.9 52 10.3
2006-05-16 08:37:37 51°14.108 2°48.693 55.8 2.9 52 10.3
2006-05-16 08:37:43 51°14.111 2°48.699 55.6 2.9 52 10.4
2006-05-16 08:37:49 51°14.114 2°48.705 55.5 2.9 52 10.4
2006-05-16 08:37:53 51°14.116 2°48.709 55.3 2.9 52 10.4
2006-05-16 08:37:57 51°14.118 2°48.713 55.1 2.9 51 10.4
2006-05-16 08:38:03 51°14.121 2°48.719 55.1 2.9 52 10.4
2006-05-16 08:38:09 51°14.124 2°48.725 55.1 2.9 50 10.4
2006-05-16 08:38:14 51°14.127 2°48.73 55 2.9 53 10.4
2006-05-16 08:38:19 51°14.129 2°48.735 54.9 2.9 50 10.4
2006-05-16 08:38:23 51°14.132 2°48.739 54.7 2.9 51 10.4
2006-05-16 08:38:27 51°14.133 2°48.743 54.5 2.9 49 10.5
2006-05-16 08:38:34 51°14.137 2°48.75 54.3 2.9 52 10.5
2006-05-16 08:38:39 51°14.139 2°48.755 54.2 2.9 51 10.5
2006-05-16 08:38:43 51°14.142 2°48.759 54 2.9 49 10.4
2006-05-16 08:38:48 51°14.145 2°48.764 53.9 2.9 49 10.5
2006-05-16 08:38:53 51°14.147 2°48.768 53.7 2.9 50 10.5
2006-05-16 08:38:57 51°14.149 2°48.772 53.6 2.9 50 10.5
2006-05-16 08:39:03 51°14.152 2°48.778 53.5 2.9 49 10.5
2006-05-16 08:39:07 51°14.154 2°48.782 53.5 2.9 49 10.5
2006-05-16 08:39:13 51°14.157 2°48.788 53.5 2.9 48 10.4
2006-05-16 08:39:17 51°14.16 2°48.792 53.7 2.9 49 10.4
2006-05-16 08:39:24 51°14.163 2°48.799 53.7 2.9 49 10.4
2006-05-16 08:39:28 51°14.165 2°48.802 53.7 2.9 48 10.3
2006-05-16 08:39:34 51°14.168 2°48.808 53.7 2.9 51 10.3
2006-05-16 08:39:37 51°14.17 2°48.811 53.8 2.9 48 10.4
2006-05-16 08:39:43 51°14.173 2°48.817 53.8 2.9 51 10.3
2006-05-16 08:39:48 51°14.176 2°48.821 54 2.9 47 10.3
2006-05-16 08:39:54 51°14.179 2°48.827 53.8 2.9 50 10.3
2006-05-16 08:39:59 51°14.181 2°48.832 53.9 2.9 47 10.2
2006-05-16 08:40:03 51°14.184 2°48.836 53.9 2.9 51 10.3
2006-05-16 08:40:09 51°14.187 2°48.842 54.1 2.9 50 10.4
2006-05-16 08:40:14 51°14.19 2°48.847 54.2 2.8 51 10.4
2006-05-16 08:40:18 51°14.191 2°48.851 54.4 2.9 51 10.4
2006-05-16 08:40:23 51°14.194 2°48.856 54.4 2.9 51 10.4
2006-05-16 08:40:29 51°14.197 2°48.862 54.7 2.9 51 10.4
2006-05-16 08:40:33 51°14.199 2°48.865 54.7 2.9 50 10.4
2006-05-16 08:40:38 51°14.202 2°48.87 55 2.9 51 10.4
2006-05-16 08:40:44 51°14.205 2°48.876 55 2.9 50 10.4
2006-05-16 08:40:49 51°14.207 2°48.881 54.7 2.9 52 10.4
2006-05-16 08:40:53 51°14.209 2°48.885 54.7 2.9 49 10.4
2006-05-16 08:40:57 51°14.211 2°48.889 54.8 2.9 50 10.4
2006-05-16 08:41:03 51°14.214 2°48.895 54.8 2.9 50 10.3
2006-05-16 08:41:08 51°14.217 2°48.9 54.7 2.9 49 10.3
2006-05-16 08:41:13 51°14.219 2°48.905 54.6 2.9 50 10.3
2006-05-16 08:41:17 51°14.222 2°48.909 54.7 2.9 50 10.3
2006-05-16 08:41:24 51°14.225 2°48.915 54.7 2.9 49 10.3
2006-05-16 08:41:29 51°14.228 2°48.92 54.6 2.9 51 10.3
2006-05-16 08:41:34 51°14.231 2°48.925 54.6 2.9 49 10.4
2006-05-16 08:41:39 51°14.233 2°48.93 54.4 2.9 51 10.4
2006-05-16 08:41:44 51°14.235 2°48.935 54.6 2.8 49 10.3
2006-05-16 08:41:48 51°14.237 2°48.939 54.6 2.8 51 10.4
2006-05-16 08:41:53 51°14.24 2°48.944 54.8 2.9 50 10.4
2006-05-16 08:41:58 51°14.242 2°48.948 55 2.9 51 10.5
2006-05-16 08:42:04 51°14.245 2°48.954 55.1 2.8 51 10.5
2006-05-16 08:42:09 51°14.248 2°48.959 55.1 2.8 51 10.5
2006-05-16 08:42:13 51°14.25 2°48.963 55.2 2.8 51 10.5
2006-05-16 08:42:19 51°14.253 2°48.969 55.4 2.8 50 10.5
2006-05-16 08:42:23 51°14.255 2°48.973 55.5 2.8 52 10.6
2006-05-16 08:42:29 51°14.257 2°48.979 55.8 2.8 51 10.6
2006-05-16 08:42:34 51°14.26 2°48.984 55.8 2.8 52 10.5
2006-05-16 08:42:38 51°14.262 2°48.987 56.2 2.8 52 10.5
2006-05-16 08:42:44 51°14.265 2°48.994 56.5 2.8 52 10.6
2006-05-16 08:42:49 51°14.267 2°48.998 56.5 2.9 52 10.5
2006-05-16 08:42:54 51°14.269 2°49.003 56.6 2.8 52 10.6
2006-05-16 08:42:59 51°14.272 2°49.008 56.6 2.8 52 10.6
2006-05-16 08:43:04 51°14.274 2°49.014 56.6 2.9 52 10.6
2006-05-16 08:43:08 51°14.276 2°49.017 56.6 2.9 55 10.6
2006-05-16 08:43:14 51°14.279 2°49.024 56.6 2.8 53 10.6
2006-05-16 08:43:19 51°14.282 2°49.029 56.6 2.8 53 10.6
2006-05-16 08:43:23 51°14.283 2°49.033 56.4 2.9 52 10.5
2006-05-16 08:43:28 51°14.286 2°49.038 56.5 2.9 53 10.5
2006-05-16 08:43:33 51°14.288 2°49.042 56.4 2.9 50 10.5
2006-05-16 08:43:39 51°14.291 2°49.048 56.3 2.9 52 10.5
2006-05-16 08:43:43 51°14.293 2°49.053 56.3 2.9 51 10.5
2006-05-16 08:43:49 51°14.296 2°49.059 56.1 2.9 51 10.6
2006-05-16 08:43:54 51°14.299 2°49.064 56 2.9 52 10.6
2006-05-16 08:43:59 51°14.301 2°49.069 56 2.9 51 10.6
2006-05-16 08:44:04 51°14.304 2°49.074 55.9 2.9 52 10.6
2006-05-16 08:44:09 51°14.306 2°49.079 55.8 2.9 50 10.6
2006-05-16 08:44:13 51°14.308 2°49.083 55.8 3 52 10.5
2006-05-16 08:44:17 51°14.31 2°49.088 55.7 3 51 10.5
2006-05-16 08:44:24 51°14.314 2°49.095 55.6 3 52 10.5
2006-05-16 08:44:29 51°14.316 2°49.1 55.5 3 50 10.5
2006-05-16 08:44:34 51°14.319 2°49.105 55.5 3 52 10.5
2006-05-16 08:44:38 51°14.321 2°49.109 55.5 3 51 10.5
2006-05-16 08:44:43 51°14.324 2°49.114 55.5 3 51 10.5
2006-05-16 08:44:49 51°14.327 2°49.12 55.5 3 51 10.5
2006-05-16 08:44:53 51°14.329 2°49.125 55.5 3 51 10.6
2006-05-16 08:44:59 51°14.332 2°49.131 55.4 3 50 10.5
2006-05-16 08:45:03 51°14.334 2°49.135 55.3 3 50 10.5
2006-05-16 08:45:08 51°14.337 2°49.141 55.1 3 52 10.5
2006-05-16 08:45:14 51°14.34 2°49.147 55 3 49 10.5
2006-05-16 08:45:19 51°14.343 2°49.152 54.8 3 51 10.5
2006-05-16 08:45:23 51°14.345 2°49.156 54.5 3 50 10.5
2006-05-16 08:45:28 51°14.348 2°49.161 54.4 3 50 10.5
2006-05-16 08:45:33 51°14.351 2°49.166 54.1 3 47 10.5
2006-05-16 08:45:38 51°14.353 2°49.171 53.8 3 50 10.5
2006-05-16 08:45:44 51°14.356 2°49.177 53.7 3 48 10.5
2006-05-16 08:45:49 51°14.359 2°49.182 53.7 3 49 10.5
2006-05-16 08:45:54 51°14.362 2°49.187 53.8 3 46 10.5
2006-05-16 08:45:59 51°14.365 2°49.192 53.7 3 48 10.5
2006-05-16 08:46:03 51°14.367 2°49.196 53.7 3 47 10.5
2006-05-16 08:46:09 51°14.37 2°49.202 53.5 3 48 10.6
2006-05-16 08:46:13 51°14.372 2°49.206 53.5 3 50 10.5
2006-05-16 08:46:19 51°14.376 2°49.212 53.4 3 48 10.6
2006-05-16 08:46:24 51°14.378 2°49.217 53.3 3 49 10.5
2006-05-16 08:46:28 51°14.38 2°49.221 53.4 3 48 10.6
2006-05-16 08:46:34 51°14.383 2°49.227 53.5 3 49 10.5
2006-05-16 08:46:38 51°14.386 2°49.231 53.7 3 50 10.5
2006-05-16 08:46:44 51°14.389 2°49.237 53.7 3 50 10.6
2006-05-16 08:46:49 51°14.392 2°49.242 53.8 3 47 10.6
2006-05-16 08:46:54 51°14.394 2°49.247 53.9 3 50 10.7
2006-05-16 08:46:58 51°14.397 2°49.251 54 3 48 10.6
2006-05-16 08:47:03 51°14.399 2°49.256 54 3 50 10.7
2006-05-16 08:47:09 51°14.403 2°49.262 54 3 48 10.7
2006-05-16 08:47:13 51°14.405 2°49.266 54.3 3 52 10.7
2006-05-16 08:47:19 51°14.408 2°49.272 54.4 3 49 10.7
2006-05-16 08:47:23 51°14.41 2°49.276 54.6 3 52 10.7
2006-05-16 08:47:28 51°14.413 2°49.281 54.6 3 48 10.7
2006-05-16 08:47:33 51°14.415 2°49.286 54.6 3 51 10.7
2006-05-16 08:47:39 51°14.419 2°49.292 54.4 3 47 10.7
2006-05-16 08:47:44 51°14.421 2°49.297 54.4 3 52 10.7
2006-05-16 08:47:47 51°14.423 2°49.3 54.3 3 47 10.7
2006-05-16 08:47:53 51°14.426 2°49.306 54 3 53 10.7
2006-05-16 08:47:59 51°14.43 2°49.312 54.1 3 47 10.7
2006-05-16 08:48:03 51°14.431 2°49.316 54 3 53 10.7
2006-05-16 08:48:06 51°14.433 2°49.319 54.1 3 47 10.7
2006-05-16 08:48:13 51°14.437 2°49.326 54.2 3 53 10.7
2006-05-16 08:48:19 51°14.44 2°49.332 54.4 3 46 10.7
2006-05-16 08:48:23 51°14.442 2°49.336 54.4 3 52 10.7
2006-05-16 08:48:29 51°14.445 2°49.342 54.5 3 49 10.7
2006-05-16 08:48:33 51°14.447 2°49.346 54.6 3 52 10.7
2006-05-16 08:48:39 51°14.451 2°49.352 54.7 3 50 10.7
2006-05-16 08:48:43 51°14.453 2°49.356 54.8 2.9 50 10.8
2006-05-16 08:48:47 51°14.454 2°49.36 55 3 51 10.7
2006-05-16 08:48:53 51°14.458 2°49.366 55 3 49 10.7
2006-05-16 08:48:59 51°14.461 2°49.372 55 3 53 10.7
2006-05-16 08:49:03 51°14.463 2°49.377 55 3 50 10.7
2006-05-16 08:49:09 51°14.466 2°49.382 55 3 51 10.7
2006-05-16 08:49:13 51°14.468 2°49.386 55 3 49 10.8
2006-05-16 08:49:18 51°14.471 2°49.391 55 3 51 10.8
2006-05-16 08:49:23 51°14.473 2°49.397 54.9 3 51 10.8
2006-05-16 08:49:28 51°14.476 2°49.402 55 3 51 10.8
2006-05-16 08:49:33 51°14.478 2°49.407 54.9 3 51 10.8
2006-05-16 08:49:38 51°14.481 2°49.412 55.1 3 52 10.8
2006-05-16 08:49:43 51°14.483 2°49.417 55.2 2.9 50 10.8
2006-05-16 08:49:48 51°14.486 2°49.422 55.2 2.9 53 10.8
2006-05-16 08:49:53 51°14.488 2°49.427 55.3 3 49 10.8
2006-05-16 08:49:59 51°14.492 2°49.433 55.1 3 53 10.8
2006-05-16 08:50:04 51°14.494 2°49.438 55.2 2.9 51 10.8
2006-05-16 08:50:08 51°14.496 2°49.442 55.1 2.9 53 10.8
2006-05-16 08:50:13 51°14.498 2°49.447 55.3 2.9 51 10.8
2006-05-16 08:50:19 51°14.502 2°49.453 55.3 2.9 53 10.8
2006-05-16 08:50:24 51°14.504 2°49.458 55.2 3 50 10.8
2006-05-16 08:50:28 51°14.506 2°49.462 55.2 2.9 50 10.8
2006-05-16 08:50:33 51°14.509 2°49.467 55.1 3 51 10.8
2006-05-16 08:50:39 51°14.512 2°49.473 54.7 3 48 10.8
2006-05-16 08:50:44 51°14.514 2°49.479 54.7 3 52 10.8
2006-05-16 08:50:49 51°14.517 2°49.484 54.4 3 48 10.8
2006-05-16 08:50:53 51°14.519 2°49.488 54.4 3 53 10.9
2006-05-16 08:50:59 51°14.522 2°49.494 54.5 3 48 10.8
2006-05-16 08:51:04 51°14.525 2°49.499 54.6 3 52 10.8
2006-05-16 08:51:09 51°14.527 2°49.504 54.7 2.9 50 10.8
2006-05-16 08:51:13 51°14.529 2°49.508 54.9 3 51 10.8
2006-05-16 08:51:19 51°14.533 2°49.514 54.8 3 49 10.8
2006-05-16 08:51:23 51°14.534 2°49.518 54.7 2.9 52 10.8
2006-05-16 08:51:29 51°14.538 2°49.524 54.7 2.9 51 10.9
2006-05-16 08:51:33 51°14.54 2°49.528 54.9 3 51 10.8
2006-05-16 08:51:37 51°14.542 2°49.532 54.8 2.9 52 10.8
2006-05-16 08:51:43 51°14.545 2°49.538 55 3 52 10.9
2006-05-16 08:51:49 51°14.548 2°49.544 54.9 3 50 10.8
2006-05-16 08:51:53 51°14.55 2°49.548 54.9 3 50 10.8
2006-05-16 08:51:57 51°14.552 2°49.552 54.7 2.9 49 10.9
2006-05-16 08:52:03 51°14.555 2°49.558 54.7 2.9 51 10.9
2006-05-16 08:52:09 51°14.558 2°49.564 54.7 3 49 10.8
2006-05-16 08:52:13 51°14.56 2°49.568 54.7 3 50 10.9
2006-05-16 08:52:19 51°14.564 2°49.574 54.6 2.9 49 10.9
2006-05-16 08:52:23 51°14.566 2°49.578 54.6 2.9 51 10.9
2006-05-16 08:52:28 51°14.568 2°49.584 54.6 2.9 50 10.9
2006-05-16 08:52:33 51°14.571 2°49.589 54.8 2.9 51 10.9
2006-05-16 08:52:37 51°14.573 2°49.592 54.7 3 50 10.9
2006-05-16 08:52:43 51°14.576 2°49.599 54.9 3 52 10.9
2006-05-16 08:52:49 51°14.579 2°49.605 55.1 2.9 49 10.8
2006-05-16 08:52:53 51°14.581 2°49.609 55.1 3 53 10.9
2006-05-16 08:52:59 51°14.584 2°49.614 55.1 2.9 49 10.9
2006-05-16 08:53:04 51°14.586 2°49.62 55 2.9 51 10.9
2006-05-16 08:53:08 51°14.589 2°49.623 54.7 2.9 50 10.9
2006-05-16 08:53:13 51°14.591 2°49.629 54.4 2.9 51 10.9
2006-05-16 08:53:18 51°14.594 2°49.633 54 2.9 52 10.9
2006-05-16 08:53:23 51°14.597 2°49.638 53.5 2.9 49 10.9
2006-05-16 08:53:29 51°14.6 2°49.644 52.9 2.9 46 10.9
2006-05-16 08:53:33 51°14.602 2°49.648 52.1 2.9 48 11
2006-05-16 08:53:39 51°14.606 2°49.653 51.5 2.9 45 11
2006-05-16 08:53:43 51°14.608 2°49.657 50.9 2.9 46 10.9
2006-05-16 08:53:48 51°14.611 2°49.661 50.5 3 43 10.9
2006-05-16 08:53:54 51°14.614 2°49.667 50 3 44 10.9
2006-05-16 08:53:57 51°14.616 2°49.669 49.8 2.9 42 10.9
2006-05-16 08:54:03 51°14.62 2°49.675 49.4 3 42 11
2006-05-16 08:54:09 51°14.623 2°49.68 49.1 3 43 11
2006-05-16 08:54:13 51°14.626 2°49.683 48.6 3 41 11
2006-05-16 08:54:18 51°14.629 2°49.688 48.3 3 42 11
2006-05-16 08:54:24 51°14.633 2°49.693 48.2 3 41 10.9
2006-05-16 08:54:28 51°14.635 2°49.696 48.1 3 40 10.9
2006-05-16 08:54:33 51°14.638 2°49.701 47.9 3 41 11
2006-05-16 08:54:39 51°14.643 2°49.706 47.9 3 40 11.1
2006-05-16 08:54:43 51°14.645 2°49.709 47.9 3 40 11.1
2006-05-16 08:54:48 51°14.648 2°49.713 47.8 3 39 10.9
2006-05-16 08:54:53 51°14.652 2°49.718 47.8 3 39 10.9
2006-05-16 08:54:59 51°14.655 2°49.723 47.5 3 40 11
2006-05-16 08:55:03 51°14.658 2°49.726 47.6 3 40 11
2006-05-16 08:55:08 51°14.661 2°49.73 47.6 3 40 10.9
2006-05-16 08:55:13 51°14.664 2°49.735 47.6 3 39 11
2006-05-16 08:55:19 51°14.668 2°49.74 47.6 3 39 11
2006-05-16 08:55:23 51°14.67 2°49.743 47.5 3 39 11
2006-05-16 08:55:29 51°14.674 2°49.748 47.5 3 39 11
2006-05-16 08:55:34 51°14.677 2°49.752 47.4 3 39 11
2006-05-16 08:55:39 51°14.681 2°49.756 47.4 3 38 11
2006-05-16 08:55:44 51°14.684 2°49.761 47.5 3 39 11
2006-05-16 08:55:49 51°14.687 2°49.765 47.5 3 39 11
2006-05-16 08:55:53 51°14.689 2°49.768 47.5 3 41 11.1
2006-05-16 08:55:59 51°14.693 2°49.773 47.5 3 39 11
2006-05-16 08:56:03 51°14.696 2°49.777 47.5 3 38 11.1
2006-05-16 08:56:08 51°14.699 2°49.781 47.5 3 41 11.1
2006-05-16 08:56:13 51°14.702 2°49.785 47.5 3 39 11.1
2006-05-16 08:56:18 51°14.705 2°49.789 47.2 2.9 40 11.1
2006-05-16 08:56:24 51°14.709 2°49.794 47.3 3 39 11.1
2006-05-16 08:56:28 51°14.712 2°49.797 47.1 3 40 11.1
2006-05-16 08:56:33 51°14.715 2°49.801 47.1 3 38 11.1
2006-05-16 08:56:39 51°14.719 2°49.806 47.1 3 40 11.1
2006-05-16 08:56:44 51°14.722 2°49.81 47.3 3 40 11.1
2006-05-16 08:56:49 51°14.725 2°49.814 47.3 3 40 11.2
2006-05-16 08:56:53 51°14.728 2°49.818 47.7 3 41 11.1
2006-05-16 08:56:56 51°14.73 2°49.821 47.7 3 40 11.1
2006-05-16 08:57:04 51°14.734 2°49.827 47.9 3 41 11.1
2006-05-16 08:57:08 51°14.737 2°49.831 47.9 3 40 11.1
2006-05-16 08:57:14 51°14.741 2°49.836 48.1 3 40 11.1
2006-05-16 08:57:19 51°14.744 2°49.84 48.2 3 42 11.1
2006-05-16 08:57:24 51°14.747 2°49.845 48.5 3 40 11.1
2006-05-16 08:57:28 51°14.749 2°49.848 48.6 3 41 11.1
2006-05-16 08:57:33 51°14.753 2°49.852 48.7 3 40 11.1
2006-05-16 08:57:39 51°14.756 2°49.857 48.6 2.9 40 11.2
2006-05-16 08:57:44 51°14.759 2°49.862 48.7 2.9 43 11.1
2006-05-16 08:57:49 51°14.762 2°49.866 48.7 3 40 11.1
2006-05-16 08:57:54 51°14.765 2°49.87 48.9 2.9 43 11.2
2006-05-16 08:57:58 51°14.768 2°49.874 49.1 2.9 41 11.2
2006-05-16 08:58:04 51°14.771 2°49.879 49.1 2.9 44 11.3
2006-05-16 08:58:09 51°14.774 2°49.883 49.3 3 41 11.1
2006-05-16 08:58:13 51°14.777 2°49.887 49.3 3 44 11.2
2006-05-16 08:58:19 51°14.781 2°49.892 49.3 3 40 11.2
2006-05-16 08:58:23 51°14.783 2°49.896 49.3 3 44 11.2
2006-05-16 08:58:29 51°14.787 2°49.9 49.3 3 41 11.2
2006-05-16 08:58:33 51°14.789 2°49.904 49.3 2.9 44 11.1
2006-05-16 08:58:39 51°14.793 2°49.909 49.5 2.9 40 11.1
2006-05-16 08:58:43 51°14.795 2°49.913 49.4 2.9 44 11.2
2006-05-16 08:58:49 51°14.799 2°49.918 49.4 2.9 42 11.2
2006-05-16 08:58:54 51°14.802 2°49.923 49.6 2.9 44 11.3
2006-05-16 08:58:59 51°14.805 2°49.927 49.6 2.9 41 11.3
2006-05-16 08:59:03 51°14.808 2°49.931 49.5 2.9 44 11.2
2006-05-16 08:59:08 51°14.811 2°49.935 49.6 2.9 41 11.2
2006-05-16 08:59:14 51°14.814 2°49.941 49.5 2.9 42 11.2
2006-05-16 08:59:19 51°14.818 2°49.945 49.3 2.9 41 11.2
2006-05-16 08:59:23 51°14.82 2°49.949 49.3 2.9 42 11.2
2006-05-16 08:59:28 51°14.824 2°49.953 49.2 2.9 40 11.3
2006-05-16 08:59:33 51°14.827 2°49.958 49 2.9 41 11.2
2006-05-16 08:59:39 51°14.831 2°49.963 49.2 2.9 42 11.2
2006-05-16 08:59:43 51°14.833 2°49.967 49.4 2.9 42 11.3
2006-05-16 08:59:48 51°14.836 2°49.971 49.6 2.9 43 11.2
2006-05-16 08:59:53 51°14.839 2°49.976 49.8 2.9 41 11.2
2006-05-16 08:59:59 51°14.842 2°49.981 49.9 2.9 44 11.2
2006-05-16 09:00:04 51°14.846 2°49.985 50 2.9 42 11.4
2006-05-16 09:00:08 51°14.848 2°49.989 50 2.9 44 11.2
2006-05-16 09:00:13 51°14.851 2°49.993 50 2.9 42 11.2
2006-05-16 09:00:18 51°14.853 2°49.997 50 2.9 45 11.2
2006-05-16 09:00:24 51°14.857 2°50.002 50.3 2.9 42 11.3
2006-05-16 09:00:29 51°14.859 2°50.007 50.6 2.9 46 11.2
2006-05-16 09:00:33 51°14.862 2°50.01 50.6 2.9 44 11.3
2006-05-16 09:00:37 51°14.864 2°50.014 50.5 2.9 44 11.3
2006-05-16 09:00:43 51°14.868 2°50.019 50.4 2.9 42 11.3
2006-05-16 09:00:49 51°14.871 2°50.024 50.3 2.9 43 11.3
2006-05-16 09:00:53 51°14.873 2°50.028 50.3 2.9 43 11.3
2006-05-16 09:00:57 51°14.876 2°50.031 50.1 2.9 42 11.3
2006-05-16 09:01:03 51°14.879 2°50.036 50 2.9 44 11.3
2006-05-16 09:01:09 51°14.882 2°50.041 50.1 2.9 43 11.3
2006-05-16 09:01:14 51°14.885 2°50.046 49.8 2.9 42 11.4
2006-05-16 09:01:19 51°14.888 2°50.05 49.9 2.9 42 11.3
2006-05-16 09:01:23 51°14.891 2°50.054 49.5 2.9 42 11.3
2006-05-16 09:01:28 51°14.894 2°50.057 49.7 2.9 42 11.3
2006-05-16 09:01:33 51°14.896 2°50.062 49.7 2.9 43 11.3
2006-05-16 09:01:39 51°14.9 2°50.067 49.7 2.9 41 11.3
2006-05-16 09:01:43 51°14.902 2°50.07 49.6 3 43 11.3
2006-05-16 09:01:49 51°14.906 2°50.075 49.5 2.9 42 11.3
2006-05-16 09:01:53 51°14.908 2°50.079 49.4 2.9 41 11.3
2006-05-16 09:01:59 51°14.912 2°50.084 49.3 2.9 42 11.3
2006-05-16 09:02:03 51°14.914 2°50.088 49.2 2.9 41 11.4
2006-05-16 09:02:08 51°14.917 2°50.092 49.9 3 43 11.3
2006-05-16 09:02:14 51°14.921 2°50.098 51.2 3 44 11.4
2006-05-16 09:02:18 51°14.923 2°50.102 53.2 3 49 11.4
2006-05-16 09:02:24 51°14.926 2°50.109 55.4 3.1 51 11.4